QPF
0.00 0.00 0.00 0.00 0.00 0.00 0.00 0.00 0.00 0.00 0.00 0.00 0.00 0.00 0.00 0.00 0.00 0.00 0.00 0.00 0.00 0.00 0.00 0.00 0.00 0.00 0.00 0.00 0.00 0.00 0.01 0.01 0.01 0.02 0.03 0.05 0.07 0.08
0.00 0.00 0.00 0.00 0.00 0.00 0.00 0.00 0.00 0.00 0.00 0.00 0.00 0.00 0.00 0.00 0.00 0.00 0.00 0.00 0.00 0.00 0.00 0.00 0.00 0.00 0.00 0.00 0.00 0.00 0.00 0.01 0.01 0.01 0.01 0.01 0.02 0.04
0.00 0.00 0.00 0.00 0.00 0.00 0.00 0.00 0.00 0.00 0.00 0.00 0.00 0.00 0.00 0.00 0.00 0.00 0.00 0.00 0.00 0.00 0.00 0.00 0.00 0.00 0.00 0.00 0.00 0.00 0.00 0.00 0.00 0.00 0.00 0.01 0.01 0.01
0.00 0.00 0.00 0.00 0.00 0.00 0.00 0.00 0.00 0.00 0.00 0.00 0.00 0.00 0.00 0.00 0.00 0.00 0.00 0.00 0.00 0.00 0.00 0.00 0.00 0.00 0.00 0.00 0.00 0.00 0.00 0.00 0.00 0.00 0.00 0.01 0.01 0.01
0.00 0.00 0.00 0.00 0.00 0.00 0.00 0.00 0.00 0.00 0.00 0.00 0.00 0.00 0.00 0.00 0.00 0.00 0.00 0.00 0.00 0.00 0.00 0.00 0.00 0.00 0.00 0.00 0.00 0.00 0.00 0.00 0.00 0.00 0.00 0.00 0.00 0.01
0.00 0.00 0.00 0.00 0.00 0.00 0.00 0.00 0.00 0.00 0.00 0.00 0.00 0.00 0.00 0.00 0.00 0.00 0.00 0.00 0.00 0.00 0.00 0.00 0.00 0.00 0.00 0.00 0.00 0.00 0.00 0.00 0.00 0.00 0.00 0.00 0.00 0.00
0.00 0.00 0.00 0.00 0.00 0.00 0.00 0.00 0.00 0.00 0.00 0.00 0.00 0.00 0.00 0.00 0.00 0.00 0.00 0.00 0.00 0.00 0.00 0.00 0.00 0.00 0.00 0.00 0.00 0.00 0.00 0.00 0.00 0.00 0.00 0.00 0.00 0.00
0.02 0.01 0.01 0.01 0.01 0.01 0.01 0.02 0.02 0.02 0.01 0.01 0.00 0.00 0.00 0.00 0.00 0.00 0.00 0.00 0.00 0.00 0.00 0.00 0.00 0.00 0.00 0.00 0.00 0.00 0.00 0.00 0.00 0.00 0.00 0.00 0.00 0.00
0.02 0.02 0.02 0.02 0.02 0.02 0.02 0.03 0.03 0.03 0.02 0.02 0.01 0.00 0.00 0.00 0.00 0.00 0.00 0.00 0.00 0.00 0.00 0.00 0.00 0.00 0.00 0.00 0.00 0.00 0.00 0.00 0.00 0.00 0.00 0.00 0.00 0.00
0.03 0.02 0.02 0.02 0.02 0.02 0.02 0.02 0.01 0.01 0.02 0.02 0.01 0.01 0.01 0.01 0.01 0.01 0.01 0.00 0.00 0.00 0.00 0.00 0.00 0.00 0.00 0.00 0.00 0.00 0.00 0.00 0.00 0.00 0.00 0.00 0.00 0.00
0.05 0.04 0.03 0.02 0.01 0.01 0.02 0.02 0.01 0.01 0.01 0.02 0.01 0.01 0.01 0.01 0.02 0.02 0.01 0.01 0.00 0.00 0.00 0.00 0.00 0.00 0.00 0.00 0.00 0.00 0.00 0.00 0.00 0.00 0.00 0.00 0.00 0.00
0.05 0.04 0.04 0.03 0.02 0.02 0.02 0.01 0.01 0.01 0.02 0.02 0.01 0.01 0.01 0.01 0.02 0.02 0.02 0.02 0.01 0.01 0.00 0.00 0.00 0.00 0.00 0.00 0.00 0.00 0.00 0.00 0.00 0.00 0.00 0.00 0.00 0.00
0.07 0.05 0.04 0.04 0.03 0.02 0.02 0.01 0.01 0.02 0.02 0.03 0.02 0.02 0.01 0.01 0.01 0.02 0.02 0.02 0.02 0.01 0.00 0.01 0.00 0.00 0.00 0.00 0.00 0.00 0.00 0.00 0.00 0.00 0.00 0.00 0.00 0.00
0.07 0.05 0.04 0.03 0.03 0.02 0.02 0.02 0.02 0.02 0.02 0.02 0.02 0.02 0.01 0.01 0.01 0.02 0.02 0.02 0.02 0.01 0.01 0.02 0.02 0.01 0.01 0.01 0.00 0.00 0.00 0.00 0.00 0.00 0.00 0.00 0.00 0.00
0.04 0.04 0.03 0.02 0.02 0.01 0.01 0.01 0.01 0.01 0.01 0.01 0.01 0.01 0.02 0.02 0.03 0.03 0.03 0.04 0.05 0.03 0.03 0.04 0.05 0.04 0.04 0.03 0.01 0.01 0.00 0.00 0.00 0.00 0.00 0.00 0.00 0.00
0.01 0.01 0.01 0.01 0.01 0.01 0.01 0.01 0.01 0.01 0.01 0.01 0.01 0.01 0.02 0.02 0.03 0.03 0.04 0.05 0.05 0.03 0.04 0.05 0.07 0.09 0.08 0.05 0.04 0.03 0.02 0.01 0.01 0.01 0.01 0.00 0.00 0.00
0.01 0.00 0.00 0.00 0.00 0.01 0.01 0.01 0.01 0.01 0.02 0.02 0.02 0.02 0.02 0.03 0.03 0.03 0.04 0.05 0.06 0.05 0.04 0.05 0.08 0.11 0.12 0.11 0.09 0.06 0.04 0.03 0.02 0.02 0.02 0.01 0.00 0.00
0.00 0.00 0.00 0.00 0.00 0.00 0.00 0.00 0.00 0.00 0.01 0.01 0.01 0.01 0.02 0.02 0.03 0.03 0.05 0.06 0.05 0.04 0.04 0.06 0.10 0.14 0.16 0.14 0.12 0.11 0.09 0.07 0.05 0.04 0.04 0.03 0.01 0.01
0.00 0.00 0.00 0.00 0.00 0.00 0.00 0.00 0.00 0.00 0.00 0.01 0.01 0.01 0.02 0.02 0.03 0.03 0.04 0.05 0.04 0.04 0.04 0.05 0.09 0.13 0.14 0.11 0.07 0.08 0.10 0.08 0.07 0.06 0.04 0.03 0.02 0.01
0.00 0.00 0.00 0.00 0.00 0.00 0.00 0.00 0.00 0.00 0.01 0.01 0.01 0.02 0.02 0.03 0.03 0.03 0.04 0.05 0.05 0.05 0.05 0.06 0.07 0.09 0.11 0.10 0.08 0.07 0.08 0.09 0.08 0.06 0.04 0.03 0.02 0.01
0.00 0.00 0.00 0.00 0.01 0.01 0.01 0.01 0.01 0.01 0.01 0.01 0.02 0.02 0.03 0.04 0.04 0.05 0.05 0.06 0.06 0.06 0.06 0.05 0.06 0.09 0.13 0.14 0.11 0.07 0.06 0.06 0.06 0.07 0.06 0.04 0.03 0.02
0.01 0.01 0.01 0.01 0.01 0.01 0.01 0.01 0.01 0.01 0.02 0.02 0.02 0.03 0.04 0.05 0.06 0.06 0.07 0.08 0.08 0.08 0.08 0.07 0.08 0.11 0.14 0.14 0.10 0.07 0.06 0.05 0.05 0.05 0.05 0.05 0.04 0.03
0.01 0.01 0.01 0.01 0.01 0.01 0.01 0.01 0.01 0.01 0.01 0.02 0.02 0.03 0.04 0.05 0.06 0.07 0.09 0.11 0.12 0.12 0.11 0.10 0.10 0.11 0.14 0.14 0.11 0.08 0.06 0.05 0.04 0.04 0.03 0.03 0.02 0.02
MSLP
1018.65 1018.95 1019.30 1019.64 1019.94 1020.15 1020.26 1020.26 1020.17 1020.00 1019.79 1019.56 1019.32 1019.10 1018.89 1018.69 1018.50 1018.33 1018.16 1018.03 1017.93 1017.88 1017.87 1017.89 1017.94 1017.99 1018.02 1018.01 1017.97 1017.89 1017.80 1017.72 1017.68 1017.68 1017.74 1017.87 1018.04 1018.24
1018.35 1018.63 1018.94 1019.25 1019.53 1019.75 1019.88 1019.93 1019.90 1019.80 1019.67 1019.51 1019.33 1019.15 1018.94 1018.73 1018.50 1018.26 1018.03 1017.82 1017.66 1017.56 1017.51 1017.51 1017.56 1017.61 1017.67 1017.69 1017.69 1017.65 1017.59 1017.53 1017.49 1017.49 1017.54 1017.63 1017.76 1017.92
1018.03 1018.27 1018.53 1018.81 1019.06 1019.26 1019.41 1019.50 1019.53 1019.51 1019.46 1019.37 1019.26 1019.12 1018.94 1018.72 1018.46 1018.19 1017.90 1017.64 1017.42 1017.25 1017.16 1017.14 1017.16 1017.22 1017.29 1017.35 1017.38 1017.38 1017.36 1017.33 1017.31 1017.32 1017.36 1017.44 1017.55 1017.67
1017.67 1017.87 1018.09 1018.32 1018.54 1018.73 1018.89 1019.00 1019.08 1019.13 1019.15 1019.14 1019.10 1019.01 1018.86 1018.66 1018.40 1018.11 1017.79 1017.48 1017.21 1017.00 1016.86 1016.79 1016.79 1016.83 1016.90 1016.96 1017.01 1017.03 1017.04 1017.04 1017.05 1017.08 1017.13 1017.21 1017.30 1017.41
1017.29 1017.45 1017.63 1017.81 1018.00 1018.17 1018.33 1018.47 1018.58 1018.68 1018.76 1018.81 1018.82 1018.79 1018.68 1018.52 1018.28 1017.99 1017.67 1017.34 1017.04 1016.79 1016.60 1016.49 1016.45 1016.45 1016.48 1016.53 1016.57 1016.60 1016.62 1016.63 1016.66 1016.70 1016.76 1016.85 1016.96 1017.06
1016.87 1016.99 1017.13 1017.29 1017.45 1017.60 1017.75 1017.90 1018.03 1018.16 1018.28 1018.37 1018.43 1018.43 1018.38 1018.25 1018.05 1017.79 1017.49 1017.17 1016.86 1016.59 1016.37 1016.22 1016.12 1016.07 1016.05 1016.05 1016.06 1016.06 1016.07 1016.08 1016.11 1016.15 1016.23 1016.33 1016.45 1016.58
1016.40 1016.50 1016.62 1016.75 1016.89 1017.03 1017.17 1017.31 1017.45 1017.58 1017.70 1017.81 1017.89 1017.93 1017.91 1017.83 1017.68 1017.47 1017.21 1016.92 1016.64 1016.36 1016.13 1015.93 1015.79 1015.68 1015.60 1015.53 1015.48 1015.44 1015.41 1015.40 1015.41 1015.46 1015.54 1015.65 1015.78 1015.93
1015.91 1015.99 1016.09 1016.21 1016.34 1016.47 1016.60 1016.72 1016.83 1016.95 1017.05 1017.15 1017.22 1017.27 1017.28 1017.23 1017.13 1016.98 1016.78 1016.55 1016.30 1016.05 1015.81 1015.60 1015.41 1015.25 1015.11 1014.98 1014.87 1014.77 1014.69 1014.64 1014.63 1014.66 1014.73 1014.84 1014.99 1015.15
1015.43 1015.50 1015.59 1015.70 1015.82 1015.94 1016.05 1016.14 1016.22 1016.29 1016.35 1016.40 1016.45 1016.48 1016.48 1016.46 1016.40 1016.30 1016.16 1016.00 1015.80 1015.59 1015.38 1015.17 1014.96 1014.76 1014.57 1014.39 1014.22 1014.07 1013.95 1013.86 1013.82 1013.82 1013.88 1013.98 1014.12 1014.29
1015.01 1015.07 1015.15 1015.26 1015.37 1015.47 1015.55 1015.61 1015.64 1015.65 1015.64 1015.62 1015.61 1015.59 1015.58 1015.55 1015.51 1015.46 1015.37 1015.26 1015.13 1014.97 1014.79 1014.60 1014.39 1014.18 1013.97 1013.75 1013.55 1013.37 1013.21 1013.09 1013.02 1013.00 1013.04 1013.13 1013.25 1013.41
1014.72 1014.75 1014.83 1014.92 1015.02 1015.10 1015.15 1015.16 1015.12 1015.05 1014.96 1014.86 1014.77 1014.69 1014.62 1014.57 1014.53 1014.49 1014.44 1014.37 1014.28 1014.17 1014.03 1013.86 1013.68 1013.48 1013.27 1013.05 1012.84 1012.65 1012.49 1012.36 1012.28 1012.24 1012.25 1012.32 1012.42 1012.56
1014.59 1014.59 1014.64 1014.71 1014.79 1014.84 1014.84 1014.80 1014.69 1014.55 1014.37 1014.18 1013.99 1013.83 1013.70 1013.59 1013.52 1013.46 1013.42 1013.37 1013.30 1013.22 1013.11 1012.98 1012.82 1012.64 1012.45 1012.26 1012.07 1011.90 1011.75 1011.63 1011.55 1011.51 1011.52 1011.56 1011.63 1011.73
1014.64 1014.60 1014.61 1014.64 1014.68 1014.68 1014.64 1014.53 1014.36 1014.14 1013.88 1013.59 1013.32 1013.07 1012.85 1012.68 1012.55 1012.46 1012.38 1012.32 1012.25 1012.17 1012.07 1011.95 1011.81 1011.67 1011.51 1011.35 1011.20 1011.07 1010.96 1010.87 1010.81 1010.78 1010.78 1010.81 1010.86 1010.92
1014.86 1014.76 1014.71 1014.69 1014.67 1014.62 1014.52 1014.35 1014.12 1013.82 1013.48 1013.12 1012.76 1012.42 1012.13 1011.88 1011.68 1011.51 1011.38 1011.27 1011.16 1011.06 1010.95 1010.82 1010.69 1010.56 1010.43 1010.32 1010.21 1010.12 1010.06 1010.01 1009.99 1009.98 1009.99 1010.01 1010.04 1010.08
1015.19 1015.02 1014.90 1014.80 1014.72 1014.60 1014.44 1014.21 1013.91 1013.55 1013.15 1012.72 1012.29 1011.88 1011.51 1011.18 1010.90 1010.66 1010.45 1010.27 1010.10 1009.93 1009.78 1009.63 1009.48 1009.36 1009.24 1009.15 1009.09 1009.05 1009.03 1009.03 1009.04 1009.07 1009.09 1009.12 1009.15 1009.18
1015.55 1015.31 1015.11 1014.94 1014.77 1014.59 1014.35 1014.06 1013.71 1013.29 1012.84 1012.36 1011.88 1011.41 1010.97 1010.56 1010.20 1009.88 1009.58 1009.31 1009.06 1008.83 1008.61 1008.41 1008.23 1008.09 1007.97 1007.90 1007.86 1007.85 1007.87 1007.91 1007.96 1008.02 1008.07 1008.12 1008.15 1008.18
1015.89 1015.57 1015.30 1015.05 1014.80 1014.53 1014.23 1013.87 1013.46 1013.01 1012.51 1011.99 1011.46 1010.94 1010.45 1009.98 1009.54 1009.13 1008.75 1008.39 1008.05 1007.74 1007.45 1007.20 1006.98 1006.80 1006.68 1006.60 1006.57 1006.58 1006.63 1006.70 1006.77 1006.86 1006.93 1007.00 1007.05 1007.09
1016.13 1015.76 1015.41 1015.09 1014.76 1014.41 1014.04 1013.62 1013.16 1012.65 1012.11 1011.56 1010.99 1010.43 1009.89 1009.36 1008.86 1008.38 1007.92 1007.48 1007.07 1006.69 1006.34 1006.03 1005.77 1005.56 1005.42 1005.33 1005.30 1005.31 1005.37 1005.45 1005.54 1005.64 1005.73 1005.81 1005.88 1005.93
1016.26 1015.84 1015.44 1015.05 1014.65 1014.24 1013.79 1013.31 1012.79 1012.24 1011.65 1011.05 1010.45 1009.84 1009.25 1008.68 1008.12 1007.58 1007.06 1006.57 1006.10 1005.66 1005.27 1004.93 1004.64 1004.41 1004.25 1004.16 1004.12 1004.12 1004.17 1004.25 1004.34 1004.44 1004.53 1004.62 1004.70 1004.77
1016.28 1015.84 1015.40 1014.95 1014.50 1014.02 1013.51 1012.97 1012.39 1011.78 1011.14 1010.49 1009.84 1009.18 1008.54 1007.91 1007.30 1006.72 1006.16 1005.63 1005.13 1004.68 1004.27 1003.92 1003.63 1003.40 1003.24 1003.13 1003.09 1003.08 1003.11 1003.17 1003.24 1003.32 1003.40 1003.48 1003.56 1003.64
1016.22 1015.77 1015.31 1014.83 1014.33 1013.80 1013.23 1012.63 1011.99 1011.31 1010.62 1009.90 1009.19 1008.48 1007.78 1007.10 1006.45 1005.82 1005.24 1004.69 1004.19 1003.75 1003.36 1003.02 1002.75 1002.54 1002.39 1002.29 1002.24 1002.22 1002.23 1002.25 1002.29 1002.34 1002.39 1002.44 1002.51 1002.57
1016.12 1015.67 1015.21 1014.71 1014.18 1013.61 1013.00 1012.33 1011.63 1010.89 1010.12 1009.34 1008.56 1007.78 1007.02 1006.29 1005.60 1004.95 1004.35 1003.80 1003.32 1002.90 1002.55 1002.26 1002.03 1001.86 1001.73 1001.64 1001.59 1001.55 1001.53 1001.51 1001.50 1001.50 1001.50 1001.52 1001.55 1001.60
1016.02 1015.58 1015.12 1014.62 1014.07 1013.47 1012.82 1012.11 1011.35 1010.55 1009.71 1008.86 1008.01 1007.16 1006.34 1005.56 1004.82 1004.15 1003.54 1003.01 1002.56 1002.18 1001.88 1001.64 1001.46 1001.33 1001.23 1001.16 1001.10 1001.05 1000.99 1000.93 1000.86 1000.80 1000.75 1000.71 1000.69 1000.70
Thickness
5707 5705 5703 5702 5701 5700 5698 5695 5688 5682 5683 5689 5693 5697 5697 5696 5695 5694 5693 5693 5692 5691 5690 5689 5688 5688 5687 5686 5686 5685 5685 5685 5684 5684 5684 5684 5685 5685
5704 5702 5700 5699 5698 5697 5695 5693 5690 5685 5680 5685 5688 5692 5692 5692 5691 5690 5690 5689 5689 5688 5687 5686 5686 5685 5684 5683 5682 5682 5681 5681 5681 5681 5681 5680 5681 5681
5701 5698 5697 5696 5694 5692 5691 5689 5686 5683 5679 5681 5684 5687 5688 5687 5687 5686 5686 5685 5685 5685 5685 5684 5683 5682 5681 5680 5679 5678 5678 5677 5677 5676 5676 5676 5676 5677
5697 5695 5693 5692 5689 5688 5686 5684 5682 5680 5677 5675 5678 5680 5682 5683 5682 5681 5682 5682 5682 5682 5682 5681 5681 5680 5679 5678 5677 5675 5674 5673 5673 5672 5672 5672 5671 5671
5694 5691 5689 5687 5684 5682 5681 5679 5678 5678 5674 5671 5671 5673 5675 5676 5676 5676 5677 5677 5678 5678 5678 5678 5677 5677 5676 5675 5674 5672 5671 5670 5669 5668 5668 5667 5667 5667
5691 5688 5686 5684 5681 5679 5677 5675 5674 5672 5670 5667 5666 5667 5667 5669 5668 5667 5668 5670 5671 5673 5674 5673 5673 5673 5672 5671 5670 5669 5667 5666 5665 5664 5664 5663 5662 5662
5686 5684 5683 5681 5680 5677 5675 5672 5669 5666 5664 5661 5661 5660 5661 5660 5660 5661 5661 5663 5664 5666 5666 5667 5667 5667 5666 5666 5666 5665 5664 5663 5662 5661 5660 5659 5658 5658
5680 5678 5677 5676 5675 5673 5672 5670 5667 5663 5659 5656 5655 5654 5656 5656 5655 5655 5654 5653 5653 5658 5657 5659 5659 5659 5660 5660 5661 5660 5660 5659 5658 5657 5656 5655 5654 5653
5675 5672 5671 5671 5669 5667 5666 5665 5663 5661 5659 5655 5651 5652 5652 5652 5649 5647 5647 5647 5649 5652 5648 5650 5651 5652 5654 5655 5655 5655 5655 5654 5654 5653 5652 5651 5650 5650
5668 5666 5664 5662 5661 5658 5657 5656 5655 5655 5652 5650 5649 5650 5649 5648 5645 5644 5643 5641 5642 5643 5641 5640 5645 5645 5649 5649 5650 5650 5650 5649 5649 5648 5647 5647 5646 5645
5658 5657 5655 5653 5651 5648 5646 5645 5645 5646 5646 5644 5644 5644 5643 5641 5638 5633 5631 5628 5631 5635 5633 5630 5636 5637 5639 5641 5644 5644 5644 5644 5643 5643 5642 5641 5641 5639
5647 5646 5644 5642 5641 5638 5635 5634 5634 5636 5635 5635 5635 5634 5633 5632 5630 5625 5624 5621 5622 5624 5628 5623 5625 5623 5625 5633 5635 5636 5636 5637 5637 5636 5636 5635 5634 5631
5636 5634 5633 5631 5629 5627 5625 5624 5624 5624 5623 5622 5623 5623 5623 5623 5622 5620 5617 5615 5614 5616 5619 5615 5615 5613 5613 5619 5623 5625 5626 5627 5628 5629 5629 5629 5627 5625
5623 5622 5621 5620 5618 5616 5615 5615 5613 5611 5609 5609 5609 5609 5610 5611 5611 5611 5609 5608 5608 5609 5610 5605 5604 5603 5602 5603 5607 5612 5614 5617 5618 5619 5620 5621 5620 5620
5611 5610 5608 5607 5605 5604 5603 5602 5600 5597 5595 5593 5593 5594 5595 5596 5596 5595 5595 5594 5595 5596 5595 5593 5591 5591 5590 5591 5595 5599 5601 5604 5606 5608 5610 5611 5612 5612
5596 5595 5594 5593 5591 5589 5587 5585 5583 5580 5578 5577 5577 5578 5577 5577 5576 5575 5575 5576 5576 5581 5581 5579 5578 5577 5578 5581 5582 5587 5590 5592 5596 5598 5600 5602 5604 5606
5579 5577 5576 5574 5571 5569 5567 5565 5563 5561 5559 5558 5557 5557 5557 5557 5557 5556 5555 5556 5557 5561 5565 5565 5564 5564 5566 5569 5572 5577 5580 5583 5587 5588 5588 5591 5596 5599
5562 5558 5555 5553 5551 5549 5547 5545 5543 5541 5539 5538 5537 5536 5536 5536 5536 5536 5535 5536 5539 5543 5546 5548 5547 5547 5550 5557 5562 5566 5570 5574 5577 5578 5579 5581 5588 5592
5542 5539 5536 5533 5532 5530 5527 5525 5524 5522 5520 5518 5516 5516 5515 5516 5516 5518 5518 5520 5522 5526 5529 5531 5531 5531 5535 5545 5555 5556 5559 5564 5566 5568 5571 5574 5580 5586
5523 5520 5518 5515 5513 5511 5508 5506 5504 5503 5501 5500 5499 5498 5498 5499 5500 5502 5504 5506 5509 5513 5517 5519 5520 5521 5524 5532 5540 5547 5550 5553 5557 5560 5564 5567 5572 5578
5505 5502 5500 5498 5496 5494 5492 5489 5487 5486 5485 5484 5484 5484 5485 5485 5487 5489 5491 5494 5497 5502 5506 5510 5514 5514 5517 5520 5527 5537 5542 5545 5550 5553 5556 5558 5561 5565
5489 5487 5484 5482 5481 5479 5477 5475 5474 5473 5473 5473 5474 5474 5474 5474 5475 5478 5481 5484 5489 5493 5497 5502 5505 5507 5508 5512 5519 5526 5532 5536 5541 5545 5550 5554 5555 5560
5475 5473 5471 5469 5468 5467 5466 5465 5464 5464 5465 5465 5465 5465 5465 5465 5466 5469 5472 5477 5481 5486 5490 5494 5498 5500 5503 5506 5511 5517 5523 5527 5531 5536 5543 5549 5552 5557